Kelso-Longview, WA
on Thursday, November 22, 2012

Thursday
Previous Day Next Day
Daily Summary
 ActualAverage (KSPB)Record (KSPB)
Temperature
Mean Temperature °F °F  
Max Temperature 50°F °F 56°F (2011)
Min Temperature 35°F °F 21°F (2000)
Degree Days
Heating Degree Days 22    
Month to date heating degree days  
Since 1 July heating degree days  
Cooling Degree Days 0    
Month to date cooling degree days  
Year to date cooling degree days  
Moisture
Dew Point 37°F   
Average Humidity 79    
Maximum Humidity 93    
Minimum Humidity 66    
Precipitation
Precipitation 0.00 in in 2.88 in (2011)
Month to date precipitation  
Year to date precipitation  
Wind
Wind Speed 4 mph   
Max Wind Speed 10 mph   
Max Gust Speed mph   
Visibility 10 miles   
Events     

Key: T is trace of precipitation, MM is missing value
Source: NWS Daily Summary
Time(PST)TemperatureDew PointHumidity Pressure Visibility Wind DirectionWind SpeedGust SpeedPrecipitationEvents Conditions
12:15 AM 35.6°F 33.8°F 93% 30.33 in 10.0 miles Calm Calm - N/A   Clear
12:35 AM 37.4°F 33.8°F 87% 30.33 in 10.0 miles ESE 3.5 mph - N/A   Clear
12:55 AM 37.4°F 33.8°F 87% 30.33 in 10.0 miles SSE 5.8 mph - N/A   Clear
1:15 AM 39.2°F 35.6°F 87% 30.33 in 10.0 miles SE 5.8 mph - N/A   Clear
1:35 AM 39.2°F 35.6°F 87% 30.34 in 10.0 miles SE 5.8 mph - N/A   Clear
1:55 AM 39.2°F 35.6°F 87% 30.34 in 10.0 miles SE 5.8 mph - N/A   Mostly Cloudy
2:15 AM 39.2°F 35.6°F 87% 30.34 in 10.0 miles SSE 6.9 mph - N/A   Mostly Cloudy
2:35 AM 37.4°F 35.6°F 93% 30.35 in 10.0 miles Calm Calm - N/A   Scattered Clouds
2:55 AM 37.4°F 33.8°F 87% 30.35 in 10.0 miles Calm Calm - N/A   Clear
3:15 AM 37.4°F 33.8°F 87% 30.35 in 10.0 miles Calm Calm - N/A   Partly Cloudy
3:35 AM 37.4°F 35.6°F 93% 30.36 in 10.0 miles Calm Calm - N/A   Mostly Cloudy
3:55 AM 39.2°F 35.6°F 87% 30.36 in 9.0 miles SE 4.6 mph - N/A   Overcast
4:15 AM 39.2°F 35.6°F 87% 30.36 in 10.0 miles SE 5.8 mph - N/A   Scattered Clouds
4:35 AM 39.2°F 35.6°F 87% 30.36 in 10.0 miles SE 4.6 mph - N/A   Mostly Cloudy
4:55 AM 39.2°F 35.6°F 87% 30.36 in 10.0 miles SE 3.5 mph - N/A   Overcast
5:15 AM 39.2°F 37.4°F 93% 30.36 in 10.0 miles SE 3.5 mph - N/A   Scattered Clouds
5:35 AM 41.0°F 37.4°F 87% 30.36 in 10.0 miles SE 4.6 mph - N/A   Clear
5:55 AM 41.0°F 37.4°F 87% 30.36 in 10.0 miles SE 3.5 mph - N/A   Clear
6:15 AM 39.2°F 37.4°F 93% 30.36 in 10.0 miles Calm Calm - N/A   Clear
6:35 AM 35.6°F 33.8°F 93% 30.36 in 8.0 miles Calm Calm - N/A   Clear
6:55 AM 35.6°F 33.8°F 93% 30.36 in 10.0 miles Calm Calm - N/A   Partly Cloudy
7:15 AM 35.6°F 33.8°F 93% 30.36 in 8.0 miles Calm Calm - N/A   Partly Cloudy
7:35 AM 35.6°F 32.0°F 87% 30.35 in 7.0 miles Calm Calm - N/A   Partly Cloudy
7:55 AM 35.6°F 33.8°F 93% 30.35 in 8.0 miles Calm Calm - N/A   Clear
8:15 AM 37.4°F 35.6°F 93% 30.36 in 5.0 miles Calm Calm - N/A   Mostly Cloudy
8:35 AM 39.2°F 35.6°F 87% 30.36 in 10.0 miles Calm Calm - N/A   Overcast
8:55 AM 41.0°F 37.4°F 87% 30.36 in 10.0 miles Calm Calm - N/A   Mostly Cloudy
9:15 AM 41.0°F 37.4°F 87% 30.36 in 10.0 miles SSE 3.5 mph - N/A   Partly Cloudy
9:35 AM 42.8°F 37.4°F 81% 30.36 in 10.0 miles SSE 5.8 mph - N/A   Clear
9:55 AM 42.8°F 37.4°F 81% 30.35 in 10.0 miles SE 5.8 mph - N/A   Clear
10:15 AM 42.8°F 37.4°F 81% 30.34 in 10.0 miles SSE 5.8 mph - N/A   Clear
10:35 AM 44.6°F 37.4°F 76% 30.35 in 10.0 miles SSE 4.6 mph - N/A   Partly Cloudy
10:55 AM 44.6°F 37.4°F 76% 30.34 in 10.0 miles SE 6.9 mph - N/A   Partly Cloudy
11:15 AM 44.6°F 37.4°F 76% 30.34 in 10.0 miles SE 3.5 mph - N/A   Clear
11:35 AM 44.6°F 37.4°F 76% 30.33 in 10.0 miles SSE 5.8 mph - N/A   Clear
11:55 AM 46.4°F 39.2°F 76% 30.33 in 10.0 miles South 6.9 mph - N/A   Partly Cloudy
12:15 PM 46.4°F 39.2°F 76% 30.31 in 10.0 miles SE 6.9 mph - N/A   Scattered Clouds
12:35 PM 46.4°F 37.4°F 71% 30.30 in 10.0 miles SE 6.9 mph - N/A   Clear
12:55 PM 48.2°F 39.2°F 71% 30.30 in 10.0 miles SSE 5.8 mph - N/A   Clear
1:15 PM 48.2°F 39.2°F 71% 30.30 in 10.0 miles SSE 5.8 mph - N/A   Scattered Clouds
1:35 PM 48.2°F 39.2°F 71% 30.30 in 10.0 miles SE 5.8 mph - N/A   Mostly Cloudy
1:55 PM 48.2°F 39.2°F 71% 30.31 in 10.0 miles SSE 4.6 mph - N/A   Partly Cloudy
2:15 PM 48.2°F 39.2°F 71% 30.30 in 10.0 miles SE 4.6 mph - N/A   Mostly Cloudy
2:35 PM 50.0°F 39.2°F 66% 30.29 in 10.0 miles SE 6.9 mph - N/A   Mostly Cloudy
2:55 PM 48.2°F 39.2°F 71% 30.29 in 10.0 miles SSE 4.6 mph - N/A   Mostly Cloudy
3:15 PM 48.2°F 39.2°F 71% 30.30 in 10.0 miles SSE 3.5 mph - N/A   Mostly Cloudy
3:35 PM 48.2°F 39.2°F 71% 30.30 in 10.0 miles SSE 3.5 mph - N/A   Scattered Clouds
3:55 PM 48.2°F 39.2°F 71% 30.29 in 10.0 miles SE 4.6 mph - N/A   Clear
4:15 PM 46.4°F 39.2°F 76% 30.30 in 10.0 miles ESE 4.6 mph - N/A   Clear
4:35 PM 46.4°F 39.2°F 76% 30.29 in 10.0 miles SE 3.5 mph - N/A   Clear
4:55 PM 46.4°F 39.2°F 76% 30.28 in 10.0 miles SE 8.1 mph - N/A   Clear
5:15 PM 46.4°F 39.2°F 76% 30.27 in 10.0 miles SSE 5.8 mph - N/A   Clear
5:35 PM 46.4°F 39.2°F 76% 30.28 in 10.0 miles SSE 5.8 mph - N/A   Clear
5:55 PM 46.4°F 39.2°F 76% 30.27 in 10.0 miles SSE 5.8 mph - N/A   Clear
6:15 PM 46.4°F 37.4°F 71% 30.27 in 10.0 miles SE 5.8 mph - N/A   Clear
6:35 PM 46.4°F 37.4°F 71% 30.26 in 10.0 miles SSE 5.8 mph - N/A   Clear
6:55 PM 46.4°F 37.4°F 71% 30.26 in 10.0 miles SSE 6.9 mph - N/A   Clear
7:15 PM 46.4°F 37.4°F 71% 30.26 in 10.0 miles SSE 6.9 mph - N/A   Clear
7:35 PM 46.4°F 37.4°F 71% 30.25 in 10.0 miles SSE 8.1 mph - N/A   Clear
7:55 PM 46.4°F 37.4°F 71% 30.24 in 10.0 miles SSE 5.8 mph - N/A   Clear
8:15 PM 46.4°F 37.4°F 71% 30.25 in 10.0 miles SSE 10.4 mph - N/A   Clear
8:35 PM 46.4°F 37.4°F 71% 30.25 in 10.0 miles SE 8.1 mph - N/A   Clear
8:55 PM 46.4°F 37.4°F 71% 30.26 in 10.0 miles SSE 4.6 mph - N/A   Clear
9:15 PM 46.4°F 35.6°F 66% 30.26 in 10.0 miles SSE 5.8 mph - N/A   Mostly Cloudy
9:35 PM 46.4°F 35.6°F 66% 30.24 in 10.0 miles SE 5.8 mph - N/A   Overcast
9:55 PM 46.4°F 37.4°F 71% 30.25 in 10.0 miles SSE 6.9 mph - N/A   Mostly Cloudy
10:15 PM 46.4°F 37.4°F 71% 30.25 in 10.0 miles South 5.8 mph - N/A   Mostly Cloudy
10:35 PM 46.4°F 37.4°F 71% 30.24 in 10.0 miles SE 6.9 mph - N/A   Partly Cloudy
10:55 PM 46.4°F 37.4°F 71% 30.25 in 10.0 miles SE 6.9 mph - N/A   Partly Cloudy
11:15 PM 46.4°F 35.6°F 66% 30.25 in 10.0 miles SSE 6.9 mph - N/A   Clear
11:35 PM 46.4°F 35.6°F 66% 30.24 in 10.0 miles SSE 6.9 mph - N/A   Clear
11:55 PM 46.4°F 35.6°F 66% 30.25 in 10.0 miles SSE 8.1 mph - N/A   Scattered Clouds
Moon Phase
Nov. 22 Nov. 28 Dec. 06 Dec. 13 Dec. 20
Sunrise:07:22 AM (PST) Moon Rise:01:35 PM (PST)11/22
Sunset:04:32 PM (PST) Moon Set:01:31 AM (PST)11/22

Copyright © 2014 The Weather Underground, Inc.